CW8443 Tokyo JP current weather conditions

sailwx.info

Wind from 248

Air temperature 23.9° C
Dewpoint 19.8° C

Last reported at 2019-Aug-23 22:01 UTC.
Time now 2019-Aug-23 22:17 UTC

Location: N 35°44' E 139°24'.
View on Google Maps.

See reports from other nearby stations

  
Tides and Currents Weather Stations Pressure Air Temp Water Temp Dewpoint Dewpoint Depression Visibility Wind Speed Wind Dir Waves Ship Positions
date/time (UTC)wind fromknots sea level pressurealtimeterstation pressurevisibilityair tempwater tempwave heightnotes
2019-Aug-23 22:01 248 23.9
2019-Aug-23 21:51 246 23.9
2019-Aug-23 21:31 245 23.3
2019-Aug-23 21:21 245 23.3
2019-Aug-23 20:41 245 23.3
2019-Aug-23 20:31 245 23.3
2019-Aug-23 20:21 245 23.3
2019-Aug-23 19:51 245 23.3
2019-Aug-23 19:21 245 23.3
2019-Aug-23 19:01 245 23.3
2019-Aug-23 18:41 245 23.9
2019-Aug-23 18:11 246 23.9
2019-Aug-23 18:01 245 23.9
2019-Aug-23 17:41 245 23.9
2019-Aug-23 17:31 246 23.9
2019-Aug-23 17:11 245 24.4
2019-Aug-23 16:51 245 24.4
2019-Aug-23 16:21 245 24.4
2019-Aug-23 16:11 245 24.4
2019-Aug-23 15:51 245 25.0
2019-Aug-23 15:41 245 25.0
2019-Aug-23 15:21 245 25.0
2019-Aug-23 15:11 245 25.0
2019-Aug-23 14:51 245 25.0
2019-Aug-23 14:31 245 25.0
2019-Aug-23 14:11 245 25.0
2019-Aug-23 13:11 263 25.6
2019-Aug-23 13:01 265 25.6
2019-Aug-23 12:51 265 25.6
2019-Aug-23 12:31 263 25.6
2019-Aug-23 12:11 265 25.6
2019-Aug-23 12:01 263 25.6
2019-Aug-23 11:51 263 25.0
2019-Aug-23 11:21 241 1 25.0
2019-Aug-23 11:11 225 25.6
2019-Aug-23 10:51 191 25.6
2019-Aug-23 10:11 190 25.6
2019-Aug-23 09:31 139 1 25.6
2019-Aug-23 09:21 157 3 26.1
2019-Aug-23 08:31 177 1 26.7
2019-Aug-23 08:21 150 1 26.7
2019-Aug-23 07:51 180 0 26.7
2019-Aug-23 07:41 191 1 26.7
2019-Aug-23 07:31 191 0 26.7
2019-Aug-23 07:01 196 0 26.7
2019-Aug-23 06:51 197 0 26.7
2019-Aug-23 06:31 204 0 27.2
2019-Aug-23 06:21 194 0 27.2
2019-Aug-23 06:01 198 1 27.2
2019-Aug-23 05:41 238 0 27.8
2019-Aug-23 05:31 242 0 27.8
2019-Aug-23 04:51 180 0 27.2
2019-Aug-23 04:41 180 0 27.2
2019-Aug-23 04:01 180 26.7
2019-Aug-23 03:41 155 26.1
2019-Aug-23 03:21 156 1 26.1
2019-Aug-23 02:41 306 25.0
2019-Aug-23 02:31 306 25.0
2019-Aug-23 02:21 306 25.0
2019-Aug-23 02:11 306 25.0
2019-Aug-23 02:01 304 0 24.4
2019-Aug-23 01:41 318 24.4
2019-Aug-23 01:31 318 24.4
2019-Aug-23 01:11 317 25.0
2019-Aug-23 00:41 318 25.0
2019-Aug-23 00:31 318 25.0
2019-Aug-22 23:41 318 23.9
2019-Aug-22 22:51 317 0 23.9
2019-Aug-22 22:41 320 23.9
2019-Aug-22 22:31 320 24.4
2019-Aug-22 22:21 320 24.4
2019-Aug-22 21:51 323 0 24.4
2019-Aug-22 21:31 325 24.4
2019-Aug-22 21:01 330 25.0
2019-Aug-22 20:41 331 25.0
2019-Aug-22 20:31 330 25.0
2019-Aug-22 20:21 180 25.0
2019-Aug-22 20:11 180 25.6
2019-Aug-22 20:01 174 25.6
2019-Aug-22 19:51 174 26.1
2019-Aug-22 19:41 174 26.1
2019-Aug-22 19:21 162 26.1
2019-Aug-22 19:11 162 26.1
2019-Aug-22 18:41 160 26.1
2019-Aug-22 18:21 197 0 26.1
2019-Aug-22 18:11 180 1 26.1
2019-Aug-22 17:41 143 0 25.6
2019-Aug-22 17:21 129 0 25.6
2019-Aug-22 16:51 138 0 26.1
2019-Aug-22 16:31 132 1 26.1
2019-Aug-22 15:31 122 4 26.1
2019-Aug-22 15:21 140 2 26.1
2019-Aug-22 15:11 163 1 26.1
2019-Aug-22 14:51 162 26.1
2019-Aug-22 14:31 164 0 26.1
2019-Aug-22 14:11 150 3 26.7
2019-Aug-22 13:51 129 2 26.7
2019-Aug-22 13:41 180 1 26.7
2019-Aug-22 13:31 153 1 26.7
2019-Aug-22 13:21 162 1 26.7
2019-Aug-22 13:11 164 0 26.7
2019-Aug-22 13:01 148 0 26.7
2019-Aug-22 12:51 160 0 26.7
2019-Aug-22 12:31 262 26.7
2019-Aug-22 12:21 263 26.7
2019-Aug-22 11:51 263 26.7
2019-Aug-22 11:41 263 26.7
2019-Aug-22 11:21 263 26.7
2019-Aug-22 11:11 262 26.7
2019-Aug-22 11:01 263 0 26.7
2019-Aug-22 10:31 266 26.1
2019-Aug-22 09:51 266 26.1
2019-Aug-22 09:01 282 0 27.2
2019-Aug-22 08:51 307 0 27.8
2019-Aug-22 08:31 310 27.8
2019-Aug-22 08:01 349 0 28.3
2019-Aug-22 07:41 301 0 28.3
2019-Aug-22 07:21 351 28.9
2019-Aug-22 07:11 348 0 28.3
2019-Aug-22 06:51 327 28.3
2019-Aug-22 06:41 327 0 28.3
2019-Aug-22 06:31 323 0 28.9
2019-Aug-22 06:21 316 0 28.9
2019-Aug-22 06:11 334 28.9
2019-Aug-22 05:21 327 30.6
2019-Aug-22 04:51 029 0 29.4
2019-Aug-22 04:41 015 0 29.4
2019-Aug-22 04:31 009 30.0
2019-Aug-22 04:21 022 1 29.4
2019-Aug-22 04:11 037 0 30.0
2019-Aug-22 04:01 037 3 30.0
2019-Aug-22 03:51 025 0 30.6
2019-Aug-22 03:31 354 29.4
2019-Aug-22 03:21 342 0 29.4
2019-Aug-22 02:41 300 27.8
2019-Aug-22 02:31 300 27.2
2019-Aug-22 02:21 334 27.2
2019-Aug-22 02:11 334 26.7
2019-Aug-22 01:51 332 25.6
2019-Aug-22 01:41 334 25.0
2019-Aug-22 01:31 334 25.0
2019-Aug-22 01:21 310 25.0
2019-Aug-22 01:11 318 24.4
2019-Aug-22 01:01 323 24.4
2019-Aug-22 00:51 002 24.4
2019-Aug-22 00:41 013 23.9
2019-Aug-22 00:31 330 23.9
2019-Aug-22 00:11 328 23.9
2019-Aug-21 23:51 328 23.9
2019-Aug-21 23:31 328 23.9
2019-Aug-21 23:21 328 23.3
2019-Aug-21 23:11 328 23.3
2019-Aug-21 23:01 328 23.3
2019-Aug-21 22:51 345 23.3
2019-Aug-21 22:31 342 23.3
2019-Aug-21 22:11 314 22.8